sat.trackr.live / text

‹ back to catalog

STARLINK-3356

NORAD 51133 · 2022-005AF

PAYLOAD ACTIVE UNKNOWN

§ Identity

Operator
Country
US
Launch date
2022-01-19
Launch site
AFETR
Launch vehicle
Mass (kg)
RCS (m²)

Purposes: comms

External: N2YO · Heavens-Above · Gunter

§ Orbital elements

Epoch: 2026-09-20T04:00:03.000096Z

Period
92.62 min
Inclination
53.1578°
Eccentricity
0.0001656
Mean motion
15.54765121 rev/d
Perigee alt
401.7 km
Apogee alt
404.0 km
Semi-major
6,781.0 km
B*
2.4837e-3
RAAN
128.3173°
Arg perigee
85.7510°
Mean anomaly
143.6115°
Rev number
592

§ Raw data

STARLINK-33561 51133U 22005AF  26263.16670139  .00171248  00000+0  24837-2 0  99922 51133  53.1578 128.3173 0001656  85.7510 143.6115 15.54765121  5927

JSON: /api/v1/satellites/51133 · /tle

For live sub-satellite position, see the globe view (requires WebGL).

§ Visibility from observer

Set your observer location to see the next 7 days of passes ≥ 10°. The values pass through the URL so the page stays shareable.

No JS? Fill the form by hand. The geolocation button needs JavaScript.